Location: Campavaglio
(41.1333°N, 9.2333°E)
Time: 04:28:59
(UTC+00:00)

Cosmos 2237 - Pass Details

Date: 07 June 2020
Orbit: 844 x 858 km, 70.8° (Epoch: 04 July)

Event Time Altitude Azimuth Distance (km) Brightness Sun altitude
Exits shadow 01:54:30 25° 196° (SSW) 1,637 5.2 -16.9°
Maximum altitude 01:57:54 81° 113° (ESE) 869 4.2 -16.6°
Drops below altitude 10° 02:03:38 10° 26° (NNE) 2,495 7.9 -15.9°
Sets 02:06:06 0° 26° (NNE) 3,437 9.0 -15.6°
